WAT378 LICA-LMML

Flight info

Callsign WAT378
Flight time 0h 39m
Altitude 31000
Route PEROS L869 BUDIN DCT UXUTA DCT OBAXU DCT NELDA N982 GZO
Aircraft B738/M-SDE2E3FGHIRWXY/LB1

Departure

Time 2026-04-26 14:57
Airport Lamezia Terme Sant'Eufemia International Airport (LICA)

Arrival

Time 2026-04-26 15:36
Airport Malta International Airport (LMML)
Time Latitude Longitude Altitude Speed Heading
2026-04-26 14:57 38.84251 16.04049 6226 ft 281 kts 221°
2026-04-26 14:57 38.82761 16.02443 6964 ft 284 kts 221°
2026-04-26 14:57 38.81246 16.00811 7686 ft 287 kts 221°
2026-04-26 14:57 38.79728 15.99178 8419 ft 291 kts 221°
2026-04-26 14:58 38.78167 15.97502 9188 ft 294 kts 221°
2026-04-26 14:58 38.76596 15.95816 9936 ft 298 kts 221°
2026-04-26 14:58 38.75003 15.94108 10639 ft 303 kts 221°
2026-04-26 14:58 38.73344 15.92330 11063 ft 319 kts 220°
2026-04-26 14:59 38.71585 15.90444 11142 ft 343 kts 220°
2026-04-26 14:59 38.69722 15.88450 11146 ft 360 kts 220°
2026-04-26 14:59 38.67809 15.86401 12131 ft 356 kts 220°
2026-04-26 14:59 38.66548 15.85049 12786 ft 355 kts 221°
2026-04-26 15:00 38.64226 15.82071 13875 ft 357 kts 234°
2026-04-26 15:00 38.63071 15.79265 14677 ft 360 kts 251°
2026-04-26 15:00 38.62358 15.76190 15437 ft 365 kts 255°
2026-04-26 15:00 38.61742 15.73072 16216 ft 368 kts 256°
2026-04-26 15:01 38.61127 15.69867 17002 ft 372 kts 256°
2026-04-26 15:01 38.60505 15.66678 17716 ft 376 kts 256°
2026-04-26 15:01 38.59857 15.63437 18431 ft 380 kts 256°
2026-04-26 15:01 38.59189 15.60166 19198 ft 383 kts 256°
2026-04-26 15:02 38.58505 15.56868 19919 ft 386 kts 256°
2026-04-26 15:02 38.57807 15.53540 20649 ft 389 kts 255°
2026-04-26 15:02 38.57101 15.50229 21334 ft 392 kts 255°
2026-04-26 15:02 38.56347 15.46870 21983 ft 395 kts 254°
2026-04-26 15:03 38.55575 15.43532 22630 ft 398 kts 254°
2026-04-26 15:03 38.54776 15.40117 23253 ft 402 kts 254°
2026-04-26 15:03 38.53991 15.36698 23860 ft 405 kts 254°
2026-04-26 15:03 38.53218 15.33247 24466 ft 408 kts 254°
2026-04-26 15:04 38.52442 15.29746 25106 ft 410 kts 254°
2026-04-26 15:04 38.51678 15.26281 25622 ft 414 kts 254°
2026-04-26 15:04 38.50898 15.22743 26202 ft 416 kts 254°
2026-04-26 15:04 38.50116 15.19199 26750 ft 418 kts 254°
2026-04-26 15:05 38.49261 15.15661 27298 ft 420 kts 251°
2026-04-26 15:05 38.48541 15.13313 27581 ft 423 kts 246°
2026-04-26 15:05 38.46537 15.09085 28505 ft 421 kts 233°
2026-04-26 15:05 38.44572 15.06395 29286 ft 418 kts 224°
2026-04-26 15:06 38.42276 15.04142 29922 ft 417 kts 216°
2026-04-26 15:06 38.39812 15.02166 30491 ft 417 kts 213°
2026-04-26 15:06 38.37329 15.00334 30994 ft 417 kts 212°
2026-04-26 15:06 38.34774 14.98508 31155 ft 422 kts 212°
2026-04-26 15:07 38.29649 14.94894 31143 ft 418 kts 212°
2026-04-26 15:07 38.24524 14.91257 31133 ft 419 kts 212°
2026-04-26 15:08 38.19396 14.87590 31145 ft 419 kts 212°
2026-04-26 15:08 38.14333 14.83959 31154 ft 419 kts 213°
2026-04-26 15:09 38.09242 14.80307 31155 ft 419 kts 213°
2026-04-26 15:09 38.04175 14.76675 31161 ft 420 kts 213°
2026-04-26 15:10 37.99931 14.73636 31158 ft 419 kts 213°
2026-04-26 15:10 37.93985 14.69538 31159 ft 420 kts 209°
2026-04-26 15:11 37.88464 14.66922 31159 ft 424 kts 201°
2026-04-26 15:11 37.82808 14.64872 31158 ft 424 kts 200°
2026-04-26 15:12 37.77083 14.62876 31152 ft 426 kts 200°
2026-04-26 15:12 37.71366 14.60843 31147 ft 427 kts 200°
2026-04-26 15:13 37.65678 14.58788 31145 ft 425 kts 200°
2026-04-26 15:13 37.60020 14.56728 31148 ft 425 kts 200°
2026-04-26 15:14 37.54326 14.54650 31142 ft 425 kts 201°
2026-04-26 15:14 37.51494 14.53619 30889 ft 419 kts 201°
2026-04-26 15:14 37.48750 14.52622 30455 ft 414 kts 201°
2026-04-26 15:15 37.46000 14.51623 30027 ft 407 kts 201°
2026-04-26 15:15 37.43297 14.50642 29672 ft 400 kts 201°
2026-04-26 15:15 37.40634 14.49676 29234 ft 395 kts 201°
2026-04-26 15:15 37.38023 14.48727 28793 ft 391 kts 201°
2026-04-26 15:16 37.35427 14.47783 28335 ft 387 kts 201°
2026-04-26 15:16 37.32872 14.46854 27875 ft 383 kts 201°
2026-04-26 15:16 37.30313 14.45923 27414 ft 387 kts 201°
2026-04-26 15:16 37.27665 14.44953 26933 ft 401 kts 201°
2026-04-26 15:17 37.25000 14.43980 26414 ft 401 kts 200°
2026-04-26 15:17 37.23208 14.43355 26083 ft 399 kts 199°
2026-04-26 15:17 37.19609 14.42424 25440 ft 395 kts 192°
2026-04-26 15:17 37.16902 14.42024 24954 ft 393 kts 189°
2026-04-26 15:18 37.14158 14.41742 24452 ft 389 kts 188°
2026-04-26 15:18 37.11503 14.41519 23959 ft 386 kts 188°
2026-04-26 15:18 37.08819 14.41305 23468 ft 382 kts 188°
2026-04-26 15:18 37.06170 14.41091 22983 ft 379 kts 188°
2026-04-26 15:19 37.03552 14.40870 22505 ft 375 kts 188°
2026-04-26 15:19 37.00986 14.40646 22048 ft 372 kts 188°
2026-04-26 15:19 36.98406 14.40414 21577 ft 368 kts 188°
2026-04-26 15:19 36.95861 14.40180 21091 ft 365 kts 187°
2026-04-26 15:20 36.93376 14.39949 20629 ft 362 kts 187°
2026-04-26 15:20 36.90866 14.39714 20161 ft 359 kts 187°
2026-04-26 15:20 36.88371 14.39480 19669 ft 357 kts 187°
2026-04-26 15:20 36.85902 14.39227 19212 ft 353 kts 189°
2026-04-26 15:21 36.83498 14.38808 18745 ft 349 kts 192°
2026-04-26 15:21 36.81121 14.38259 18278 ft 346 kts 194°
2026-04-26 15:21 36.78777 14.37672 17807 ft 344 kts 194°
2026-04-26 15:21 36.76432 14.37087 17336 ft 341 kts 193°
2026-04-26 15:22 36.74142 14.36531 16885 ft 339 kts 193°
2026-04-26 15:22 36.71829 14.35984 16426 ft 337 kts 193°
2026-04-26 15:22 36.69519 14.35449 15960 ft 335 kts 192°
2026-04-26 15:22 36.67249 14.34929 15522 ft 332 kts 192°
2026-04-26 15:23 36.64980 14.34412 15054 ft 331 kts 192°
2026-04-26 15:23 36.62737 14.33901 14599 ft 329 kts 192°
2026-04-26 15:23 36.60502 14.33393 14157 ft 326 kts 192°
2026-04-26 15:23 36.58266 14.32885 13717 ft 324 kts 192°
2026-04-26 15:24 36.56084 14.32389 13315 ft 321 kts 192°
2026-04-26 15:24 36.53880 14.31888 12878 ft 319 kts 192°
2026-04-26 15:24 36.51700 14.31391 12432 ft 318 kts 192°
2026-04-26 15:24 36.49544 14.30901 11970 ft 317 kts 192°
2026-04-26 15:25 36.47353 14.30403 11488 ft 317 kts 191°
2026-04-26 15:25 36.45929 14.30078 11201 ft 316 kts 191°
2026-04-26 15:25 36.43042 14.29422 10642 ft 313 kts 191°
2026-04-26 15:25 36.40938 14.28944 10403 ft 305 kts 191°
2026-04-26 15:26 36.38892 14.28481 10295 ft 293 kts 192°
2026-04-26 15:26 36.36912 14.28033 10122 ft 284 kts 192°
2026-04-26 15:26 36.34976 14.27592 9713 ft 285 kts 192°
2026-04-26 15:26 36.33015 14.27146 9336 ft 284 kts 192°
2026-04-26 15:27 36.31087 14.26707 8985 ft 283 kts 192°
2026-04-26 15:27 36.29138 14.26265 8619 ft 282 kts 191°
2026-04-26 15:27 36.27218 14.25834 8255 ft 280 kts 189°
2026-04-26 15:27 36.25273 14.25688 7763 ft 278 kts 177°
2026-04-26 15:28 36.23372 14.25918 7260 ft 276 kts 173°
2026-04-26 15:28 36.21459 14.26229 6705 ft 274 kts 173°
2026-04-26 15:28 36.19585 14.26490 6174 ft 273 kts 174°
2026-04-26 15:28 36.17716 14.26700 5707 ft 268 kts 175°
2026-04-26 15:29 36.15868 14.26881 5355 ft 259 kts 176°
2026-04-26 15:29 36.14105 14.27045 5039 ft 250 kts 176°
2026-04-26 15:29 36.10640 14.27368 4535 ft 260 kts 175°
2026-04-26 15:30 36.07027 14.27709 4344 ft 253 kts 175°
2026-04-26 15:30 36.05310 14.27872 4264 ft 242 kts 175°
2026-04-26 15:30 36.03649 14.28030 4184 ft 232 kts 175°
2026-04-26 15:31 36.02080 14.28239 4088 ft 222 kts 168°
2026-04-26 15:31 35.99650 14.30393 3812 ft 223 kts 125°
2026-04-26 15:31 35.98671 14.31861 3592 ft 222 kts 133°
2026-04-26 15:32 35.96831 14.34060 3205 ft 220 kts 135°
2026-04-26 15:32 35.95390 14.35831 3039 ft 219 kts 134°
2026-04-26 15:32 35.94344 14.37142 2645 ft 212 kts 134°
2026-04-26 15:33 35.93339 14.38386 2361 ft 197 kts 135°
2026-04-26 15:33 35.92402 14.39541 2114 ft 184 kts 135°
2026-04-26 15:33 35.91523 14.40630 1875 ft 173 kts 135°
2026-04-26 15:33 35.90709 14.41637 1660 ft 159 kts 135°
2026-04-26 15:34 35.89934 14.42595 1447 ft 155 kts 136°
2026-04-26 15:34 35.89184 14.43514 1242 ft 149 kts 136°
2026-04-26 15:34 35.88446 14.44424 1043 ft 152 kts 136°
2026-04-26 15:34 35.87697 14.45355 844 ft 151 kts 137°
2026-04-26 15:35 35.86957 14.46266 660 ft 153 kts 137°
2026-04-26 15:35 35.86208 14.47192 477 ft 152 kts 136°
2026-04-26 15:35 35.85473 14.48105 272 ft 149 kts 137°
2026-04-26 15:35 35.84803 14.48924 255 ft 112 kts 134°
2026-04-26 15:36 35.84402 14.49420 251 ft 53 kts 134°
2026-04-26 15:36 35.84249 14.49610 250 ft 14 kts 135°
2026-04-26 15:36 35.84215 14.49696 249 ft 5 kts 52°
2026-04-26 15:36 35.84256 14.49695 249 ft 7 kts 345°
2026-04-26 15:37 35.84336 14.49668 249 ft 16 kts 345°
2026-04-26 15:37 35.84466 14.49619 249 ft 18 kts 335°
2026-04-26 15:37 35.84547 14.49542 250 ft 10 kts 327°
2026-04-26 15:37 35.84612 14.49558 249 ft 10 kts 41°
2026-04-26 15:38 35.84681 14.49568 249 ft 14 kts 334°
2026-04-26 15:38 35.84768 14.49474 250 ft 16 kts 310°
2026-04-26 15:38 35.84848 14.49374 251 ft 15 kts 314°
2026-04-26 15:38 35.84903 14.49339 252 ft 7 kts 355°
2026-04-26 15:39 35.84948 14.49338 251 ft 4 kts 359°
2026-04-26 15:39 35.84959 14.49338 251 ft 0 kts 359°